This demonstration page uses our WeatherBlox Daily Observations layout. Learn more.

Left ArrowRight Arrow

44.89941, -97.11507

Hourly Observations for August 18, 2016

Temp ( °F °C ) Dew Point ( °F °C ) Humidity (%) Winds ( mph kmh ) Pressure ( in mb ) Visibility ( mi km ) Precip ( " mm )
12:53 am 00:53 Clear 70 21.1 62 16.7 76 76 SE 7 11 29.98 1015 10 16 0.00 0.00
1:53 am 01:53 Mostly Clear 69 20.6 62 16.7 78 78 SSE 7 11 29.98 1015 10 16 0.00 0.00
2:53 am 02:53 Clear 68 20 62 16.7 81 81 SSE 8 13 29.95 1014 10 16 0.00 0.00
3:53 am 03:53 Mostly Clear 67 19.4 62 16.7 84 84 S 9 15 29.92 1013 10 16 0.00 0.00
4:53 am 04:53 Partly Cloudy 68 20 63 17.2 84 84 SSE 9 15 29.91 1013 10 16 0.00 0.00
5:37 am 05:37 Clear with Nearby Thunderstorms 68 20 64 17.8 87 87 S 6 9 29.91 1013 10 16 0.00 0.00
5:53 am 05:53 Mostly Cloudy with Nearby Thunderstorms 69 20.6 65 18.3 87 87 VRB 3 6 29.93 1014 10 16 0.00 0.00
6:19 am 06:19 Mostly Cloudy with Light Rain 69 20.6 65 18.3 87 87 E 5 7 29.88 1012 10 16 0.00 0.03
6:44 am 06:44 Mostly Cloudy with Nearby Thunderstorms 69 20.6 65 18.3 87 87 VRB 6 9 29.88 1012 10 16 0.00 0.03
6:53 am 06:53 Partly Cloudy with Nearby Thunderstorms 69 20.6 65 18.3 87 87 NE 8 13 29.91 1013 10 16 0.00 0.03
7:01 am 07:01 Partly Cloudy 69 20.6 66 18.9 90 90 NE 7 11 29.88 1012 10 16 0.00 0.00
7:39 am 07:39 Mostly Cloudy with Nearby Thunderstorms 71 21.7 66 18.9 84 84 SE 5 7 29.85 1011 10 16 0.00 0.00
7:53 am 07:53 Cloudy with Thunderstorms 71 21.7 67 19.4 87 87 E 5 7 29.90 1013 10 16 0.00 0.00
8:40 am 08:40 Partly Cloudy with Nearby Thunderstorms 72 22.2 67 19.4 84 84 SE 12 19 29.83 1010 10 16 0.01 0.25
8:53 am 08:53 Sunny 72 22.2 67 19.4 84 84 SE 14 22 29.85 1011 10 16 0.01 0.25
9:53 am 09:53 Sunny 73 22.8 68 20 84 84 SE 14 22 29.84 1010 10 16 0.00 0.00
10:53 am 10:53 Mostly Cloudy with Light Rain 74 23.3 70 21.1 88 88 E 5 7 29.87 1012 7 11 0.05 1.27
11:30 am 11:30 Mostly Cloudy 72 22.2 68 20 87 87 NNE 21 33 29.91 1013 10 16 0.00 0.03
11:53 am 11:53 Cloudy 69 20.6 63 17.2 81 81 NE 16 26 29.94 1014 10 16 0.00 0.03
12:26 pm 12:26 Mostly Cloudy 72 22.2 63 17.2 73 73 ENE 13 20 29.85 1011 10 16 0.00 0.00
12:53 pm 12:53 Partly Cloudy 71 21.7 63 17.2 76 76 E 10 17 29.85 1011 10 16 0.00 0.00
1:53 pm 13:53 Partly Cloudy with Light Rain 73 22.8 66 18.9 79 79 ESE 9 15 29.86 1011 10 16 0.00 0.03
2:53 pm 14:53 Mostly Sunny 73 22.8 69 20.6 87 87 SSE 9 15 29.83 1010 10 16 0.03 0.76
3:53 pm 15:53 Cloudy 74 23.3 69 20.6 85 85 SSE 5 7 29.85 1011 10 16 0.00 0.00
4:53 pm 16:53 Mostly Sunny 76 24.4 71 21.7 85 85 SE 7 11 29.83 1010 10 16 0.00 0.00
5:27 pm 17:27 Mostly Sunny 77 25 71 21.7 82 82 NW 14 22 29.80 1009 10 16 0.00 0.00
5:43 pm 17:43 Sunny 76 24.4 69 20.6 79 79 NW 9 15 29.80 1009 10 16 0.00 0.00
5:53 pm 17:53 Sunny 76 24.4 69 20.6 79 79 NW 10 17 29.86 1011 10 16 0.00 0.00
6:53 pm 18:53 Partly Cloudy 77 25 69 20.6 77 77 NNW 9 15 29.85 1011 10 16 0.00 0.00
7:06 pm 19:06 Mostly Cloudy 76 24.4 69 20.6 79 79 N 17 28 29.80 1009 10 16 0.00 0.00
7:34 pm 19:34 Mostly Cloudy 73 22.8 68 20 84 84 N 18 30 29.85 1011 10 16 0.00 0.00
7:42 pm 19:42 Mostly Cloudy 73 22.8 67 19.4 81 81 N 20 31 29.85 1011 10 16 0.00 0.00
7:50 pm 19:50 Mostly Cloudy 73 23 66 19 78 78 N 17 28 29.83 1010 10 16 0.00 0.00
7:53 pm 19:53 Mostly Cloudy 72 22.2 67 19.4 84 84 NNE 17 28 29.86 1011 10 16 0.00 0.00
8:12 pm 20:12 Partly Cloudy 71 21.7 66 18.9 84 84 N 17 28 29.83 1010 10 16 0.00 0.00
8:53 pm 20:53 Mostly Cloudy 70 21.1 66 18.9 87 87 NNE 15 24 29.88 1012 10 16 0.00 0.00
9:53 pm 21:53 Clear 69 20.6 66 18.9 90 90 NNE 13 20 29.88 1012 10 16 0.00 0.00
10:37 pm 22:37 Cloudy with Nearby Thunderstorms 69 20.6 66 18.9 90 90 N 17 28 29.88 1012 10 16 0.00 0.00
10:53 pm 22:53 Partly Cloudy with Nearby Thunderstorms 69 20.6 66 18.9 90 90 N 16 26 29.89 1012 10 16 0.00 0.00
11:38 pm 23:38 Cloudy with Nearby Thunderstorms 71 21.7 64 17.8 79 79 ESE 9 15 29.91 1013 10 16 0.00 0.03
11:53 pm 23:53 Cloudy with Nearby Thunderstorms 70 21.1 64 17.8 82 82 N 14 22 29.91 1013 10 16 0.00 0.03

Powered by AerisWeather